Weather History for Fosston, MN

Change the Weather History Date:

Tuesday, November 18, 2014

  Actual Average Record
Temperature  
Mean Temperature 8 °F -  
Max Temperature 17 °F 33 °F 60 °F (1953)
Min Temperature 0 °F 18 °F -7 °F (1989)
Degree Days  
Heating Degree Days 56    
Moisture  
Dew Point 6 °F    
Average Humidity 83    
Maximum Humidity 92    
Minimum Humidity 68    
Precipitation  
Precipitation 0.00 in - - ()
Sea Level Pressure  
Sea Level Pressure 29.81 in    
Wind  
Wind Speed 9 mph (SW)    
Max Wind Speed 20 mph    
Max Gust Speed 25 mph    
Visibility 8 miles    
Events Snow    
Averages and records for this station are not official NWS values.
T = Trace of Precipitation, MM = Missing Value Source: NWS Daily Summary

Daily Weather History Graph

Daily Weather History Graph

Search for Another Location

Airport:

Trip Planner

Search our weather history database for the weather conditions in past years. The results will help you decide how hot, cold, wet, or windy it might be!

Date:

Astronomy

Nov. 18, 2014 Rise Set
Actual Time 7:32 AM CST 4:43 PM CST
Civil Twilight 6:58 AM CST 5:17 PM CST
Nautical Twilight 6:21 AM CST 5:54 PM CST
Astronomical Twilight 5:44 AM CST 6:31 PM CST
Moon 3:14 AM CST (11/18) 2:53 PM CST (11/18)
Length of Visible Light 10h 18m
Length of Day
9h 10m
Waning Crescent, 15% of the Moon is Illuminated
Nov 18
Waning Crescent
Nov 22
New
Nov 29
First Quarter
Dec 6
Full
Dec 14
Last Quarter

Hourly Weather History & Observations

Time (CST) Temp. Windchill Dew Point Humidity Pressure Visibility Wind Dir Wind Speed Gust Speed Precip Events Conditions
12:15 AM 1.4 °F -11.3 °F -2.2 °F 85% 29.98 in 7.0 mi WNW 6.9 mph - N/A Snow Light Snow
12:35 AM -0.4 °F -12.0 °F -2.2 °F 92% 29.98 in 7.0 mi WNW 5.8 mph - N/A Snow Light Snow
12:54 AM -0.4 °F -13.4 °F -2.2 °F 92% 29.97 in 5.0 mi WNW 6.9 mph - N/A Snow Light Snow
1:07 AM -0.4 °F -12.0 °F -2.2 °F 92% 29.97 in 5.0 mi WNW 5.8 mph - N/A Snow Light Snow
1:35 AM 1.4 °F -11.3 °F -2.2 °F 85% 29.96 in 10.0 mi West 6.9 mph - N/A   Overcast
1:54 AM 1.4 °F -12.5 °F -0.4 °F 92% 29.96 in 10.0 mi West 8.1 mph - N/A   Overcast
2:15 AM 3.2 °F -9.1 °F -0.4 °F 85% 29.96 in 10.0 mi West 6.9 mph - N/A   Overcast
2:34 AM 3.2 °F -9.1 °F 1.4 °F 92% 29.96 in 10.0 mi West 6.9 mph - N/A   Overcast
2:55 AM 3.2 °F -10.3 °F 1.4 °F 92% 29.95 in 10.0 mi West 8.1 mph - N/A   Overcast
3:15 AM 3.2 °F -9.1 °F 1.4 °F 92% 29.95 in 10.0 mi West 6.9 mph - N/A   Overcast
3:32 AM 3.2 °F -9.1 °F 1.4 °F 92% 29.95 in 10.0 mi West 6.9 mph - N/A   Overcast
3:55 AM 5.0 °F -5.6 °F 1.4 °F 85% 29.95 in 10.0 mi West 5.8 mph - N/A   Overcast
4:15 AM 5.0 °F -8.1 °F 1.4 °F 85% 29.94 in 10.0 mi West 8.1 mph - N/A   Overcast
4:35 AM 6.8 °F -5.9 °F 1.4 °F 79% 29.94 in 10.0 mi West 8.1 mph - N/A   Overcast
4:55 AM 6.8 °F -3.5 °F 1.4 °F 79% 29.94 in 10.0 mi West 5.8 mph - N/A   Overcast
5:15 AM 6.8 °F -4.8 °F 1.4 °F 79% 29.94 in 7.0 mi WSW 6.9 mph - N/A   Overcast
5:35 AM 6.8 °F -3.5 °F 3.2 °F 85% 29.93 in 7.0 mi SW 5.8 mph - N/A Snow Light Snow
5:55 AM 6.8 °F -4.8 °F 3.2 °F 85% 29.93 in 10.0 mi WSW 6.9 mph - N/A Snow Light Snow
6:15 AM 6.8 °F -3.5 °F 3.2 °F 85% 29.93 in 7.0 mi WSW 5.8 mph - N/A Snow Light Snow
6:35 AM 6.8 °F -4.8 °F 3.2 °F 85% 29.93 in 7.0 mi WSW 6.9 mph - N/A Snow Light Snow
6:55 AM 6.8 °F -5.9 °F 3.2 °F 85% 29.92 in 7.0 mi WSW 8.1 mph - N/A Snow Light Snow
7:15 AM 6.8 °F -4.8 °F 3.2 °F 85% 29.92 in 10.0 mi SW 6.9 mph - N/A   Overcast
7:35 AM 6.8 °F -4.8 °F 3.2 °F 85% 29.91 in 10.0 mi SW 6.9 mph - N/A   Overcast
7:55 AM 6.8 °F -3.5 °F 3.2 °F 85% 29.91 in 10.0 mi SW 5.8 mph - N/A   Overcast
8:15 AM 8.6 °F -2.6 °F 5.0 °F 85% 29.91 in 10.0 mi SW 6.9 mph - N/A   Overcast
8:35 AM 8.6 °F -2.6 °F 5.0 °F 85% 29.90 in 10.0 mi SSW 6.9 mph - N/A   Overcast
8:55 AM 8.6 °F -1.3 °F 6.8 °F 92% 29.90 in 10.0 mi SW 5.8 mph - N/A   Overcast
9:15 AM 10.4 °F -0.4 °F 6.8 °F 85% 29.90 in 10.0 mi SW 6.9 mph - N/A   Overcast
9:36 AM 10.4 °F -2.4 °F 6.8 °F 85% 29.89 in 7.0 mi SW 9.2 mph - N/A Snow Light Snow
9:55 AM 10.4 °F -1.5 °F 8.6 °F 92% 29.88 in 10.0 mi SW 8.1 mph - N/A   Overcast
10:15 AM 12.2 °F -0.2 °F 8.6 °F 85% 29.88 in 10.0 mi SW 9.2 mph - N/A   Overcast
10:36 AM 12.2 °F -1.0 °F 8.6 °F 85% 29.87 in 10.0 mi SW 10.4 mph - N/A   Overcast
10:55 AM 14.0 °F 1.2 °F 6.8 °F 73% 29.86 in 10.0 mi WSW 10.4 mph - N/A   Overcast
11:15 AM 15.8 °F 2.1 °F 6.8 °F 68% 29.85 in 10.0 mi SW 12.7 mph - N/A   Overcast
11:36 AM 15.8 °F 1.4 °F 8.6 °F 73% 29.84 in 5.0 mi SW 13.8 mph - N/A Snow Light Snow
11:54 AM 15.8 °F 2.1 °F 6.8 °F 68% 29.84 in 7.0 mi SW 12.7 mph - N/A Snow Light Snow
12:15 PM 15.8 °F 1.4 °F 8.6 °F 73% 29.83 in 10.0 mi SSW 13.8 mph - N/A Snow Light Snow
12:35 PM 15.8 °F 1.4 °F 8.6 °F 73% 29.82 in 4.0 mi SW 13.8 mph - N/A Snow Light Snow
12:55 PM 15.8 °F 0.9 °F 10.4 °F 79% 29.81 in 3.0 mi SSW 15.0 mph - N/A Snow Light Snow
1:16 PM 15.8 °F 0.9 °F 10.4 °F 79% 29.80 in 5.0 mi SSW 15.0 mph 20.7 mph N/A Snow Light Snow
1:31 PM 15.8 °F 0.9 °F 10.4 °F 79% 29.79 in 7.0 mi SSW 15.0 mph - N/A Snow Light Snow
1:55 PM 17.6 °F 2.7 °F 8.6 °F 68% 29.78 in 10.0 mi SSW 16.1 mph - N/A   Mostly Cloudy
2:15 PM 15.8 °F -0.2 °F 8.6 °F 73% 29.77 in 7.0 mi South 17.3 mph - N/A Snow Light Snow
2:35 PM 15.8 °F 0.9 °F 8.6 °F 73% 29.76 in 7.0 mi South 15.0 mph - N/A Snow Light Snow
2:56 PM 15.8 °F -0.2 °F 8.6 °F 73% 29.75 in 10.0 mi SSW 17.3 mph - N/A   Mostly Cloudy
3:15 PM 15.8 °F -0.2 °F 8.6 °F 73% 29.74 in 10.0 mi South 17.3 mph - N/A   Scattered Clouds
3:35 PM 15.8 °F 0.3 °F 8.6 °F 73% 29.73 in 10.0 mi SSW 16.1 mph - N/A   Mostly Cloudy
3:54 PM 15.8 °F 0.3 °F 8.6 °F 73% 29.72 in 10.0 mi South 16.1 mph - N/A   Mostly Cloudy
4:15 PM 15.8 °F -0.2 °F 8.6 °F 73% 29.71 in 10.0 mi South 17.3 mph 21.9 mph N/A   Scattered Clouds
4:35 PM 14.0 °F -1.4 °F 8.6 °F 79% 29.70 in 10.0 mi South 15.0 mph - N/A   Scattered Clouds
4:55 PM 14.0 °F -1.4 °F 8.6 °F 79% 29.69 in 10.0 mi South 15.0 mph - N/A   Clear
5:15 PM 12.2 °F -3.1 °F 8.6 °F 85% 29.69 in 10.0 mi South 13.8 mph - N/A   Clear
5:34 PM 14.0 °F -0.8 °F 8.6 °F 79% 29.70 in 10.0 mi South 13.8 mph - N/A   Mostly Cloudy
5:55 PM 14.0 °F -0.2 °F 8.6 °F 79% 29.69 in 10.0 mi South 12.7 mph - N/A   Overcast
6:15 PM 14.0 °F -1.4 °F 8.6 °F 79% 29.69 in 10.0 mi South 15.0 mph - N/A   Overcast
6:35 PM 14.0 °F -2.0 °F 8.6 °F 79% 29.68 in 7.0 mi South 16.1 mph - N/A   Overcast
6:56 PM 14.0 °F -0.8 °F 10.4 °F 86% 29.69 in 2.0 mi South 13.8 mph - N/A Snow Light Snow
7:15 PM 14.0 °F -1.4 °F 10.4 °F 86% 29.68 in 10.0 mi South 15.0 mph - N/A   Overcast
7:35 PM 14.0 °F -2.5 °F 10.4 °F 86% 29.66 in 4.0 mi South 17.3 mph - N/A Snow Light Snow
7:55 PM 14.0 °F -1.4 °F 10.4 °F 86% 29.66 in 3.0 mi South 15.0 mph 20.7 mph N/A Snow Light Snow
8:15 PM 14.0 °F -0.8 °F 10.4 °F 86% 29.66 in 2.5 mi South 13.8 mph - N/A Snow Light Snow
8:35 PM 14.0 °F -0.8 °F 10.4 °F 86% 29.66 in 2.5 mi South 13.8 mph - N/A Snow Light Snow
8:55 PM 14.0 °F -1.4 °F 10.4 °F 86% 29.66 in 2.0 mi South 15.0 mph - N/A Snow Light Snow
9:15 PM 14.0 °F -0.2 °F 10.4 °F 86% 29.65 in 2.5 mi South 12.7 mph - N/A Snow Light Snow
9:35 PM 14.0 °F 0.5 °F 10.4 °F 86% 29.65 in 3.0 mi South 11.5 mph - N/A Snow Light Snow
9:55 PM 12.2 °F -1.8 °F 10.4 °F 92% 29.65 in 2.5 mi SSW 11.5 mph - N/A Snow Light Snow
10:15 PM 12.2 °F -0.2 °F 10.4 °F 92% 29.65 in 5.0 mi SSW 9.2 mph - N/A Snow Light Snow
10:35 PM 14.0 °F 2.0 °F 10.4 °F 86% 29.65 in 3.0 mi SSW 9.2 mph - N/A Snow Light Snow
10:55 PM 14.0 °F 1.2 °F 10.4 °F 86% 29.65 in 5.0 mi SSW 10.4 mph - N/A Snow Light Snow
11:15 PM 14.0 °F 3.9 °F 10.4 °F 86% 29.65 in 3.0 mi SW 6.9 mph - N/A Snow Light Snow
11:35 PM 15.8 °F 0.9 °F 12.2 °F 86% 29.65 in 2.5 mi West 15.0 mph 18.4 mph N/A Snow Light Snow
11:55 PM 15.8 °F -1.1 °F 12.2 °F 86% 29.66 in 2.0 mi WNW 19.6 mph 25.3 mph N/A Snow Light Snow